This is the latest recevied weather packets stored in our database for station/object IT9CNT. If no packets are shown the sender has not sent any weather packets the latest 1 day(s).
| Time | Temp. | Humidity | Pressure | Rain* | Wind** | Luminosity | Snow |
|---|---|---|---|---|---|---|---|
| 1778006403 | 17.22° C | 80% | 1013.1 hPa | 0 mm | 1.79 m/s, 94° | - | - |
| 1778006343 | 17.22° C | 80% | 1012.8 hPa | 0 mm | 1.79 m/s, 95° | - | - |
| 1778006283 | 17.22° C | 80% | 1012.7 hPa | 0 mm | 2.24 m/s, 92° | - | - |
| 1778006223 | 17.22° C | 80% | 1012.8 hPa | 0 mm | 2.24 m/s, 93° | - | - |
| 1778006163 | 17.22° C | 80% | 1012.8 hPa | 0 mm | 1.79 m/s, 99° | - | - |
| 1778006103 | 17.22° C | 80% | 1012.9 hPa | 0 mm | 1.79 m/s, 94° | - | - |
| 1778006043 | 17.22° C | 80% | 1012.7 hPa | 0 mm | 2.24 m/s, 89° | - | - |
| 1778005983 | 17.22° C | 80% | 1012.8 hPa | 0 mm | 2.24 m/s, 87° | - | - |
| 1778005923 | 17.22° C | 80% | 1012.8 hPa | 0 mm | 2.24 m/s, 88° | - | - |
| 1778005863 | 17.22° C | 80% | 1012.6 hPa | 0 mm | 2.24 m/s, 93° | - | - |
| 1778005803 | 17.22° C | 80% | 1012.7 hPa | 0 mm | 2.24 m/s, 90° | - | - |
| 1778005743 | 17.22° C | 80% | 1012.7 hPa | 0 mm | 2.24 m/s, 90° | - | - |
| 1778005683 | 17.22° C | 80% | 1012.7 hPa | 0 mm | 2.24 m/s, 90° | - | - |
| 1778005623 | 17.22° C | 80% | 1012.7 hPa | 0 mm | 2.68 m/s, 91° | - | - |
| 1778005563 | 17.22° C | 81% | 1012.5 hPa | 0 mm | 2.68 m/s, 90° | - | - |
| 1778005503 | 17.22° C | 81% | 1012.7 hPa | 0 mm | 2.68 m/s, 92° | - | - |
| 1778005443 | 17.22° C | 81% | 1012.5 hPa | 0 mm | 2.68 m/s, 92° | - | - |
| 1778005383 | 17.22° C | 81% | 1012.6 hPa | 0 mm | 2.24 m/s, 93° | - | - |
| 1778005323 | 17.22° C | 81% | 1012.7 hPa | 0 mm | 2.24 m/s, 96° | - | - |
| 1778005263 | 17.22° C | 80% | 1012.7 hPa | 0 mm | 2.24 m/s, 90° | - | - |
| 1778005203 | 17.22° C | 80% | 1012.5 hPa | 0 mm | 1.79 m/s, 87° | - | - |
| 1778005143 | 17.22° C | 80% | 1012.6 hPa | 0 mm | 1.79 m/s, 88° | - | - |
| 1778005083 | 17.22° C | 80% | 1012.6 hPa | 0 mm | 1.79 m/s, 84° | - | - |
| 1778005023 | 17.22° C | 80% | 1012.6 hPa | 0 mm | 1.34 m/s, 82° | - | - |
| 1778004963 | 17.22° C | 80% | 1012.4 hPa | 0 mm | 0.89 m/s, 76° | - | - |
* Rain latest hour (hover to see other rain measurements)
** Current wind speed in m/s (hover to see current wind gust speed)